Regional Weather Roundup
Issued by NWS

Home | Current Version | Previous Version | Text Only | Print | Product List | Glossary Off
Versions: 1 2 3 4 5 6 7 8 9 10 11 12 13 14 15 16 17 18 19 20 21 22 23 24 25 26 27 28 29 30 31 32 33 34 35 36 37 38 39 40 41 42 43 44 45 46 47 48 49 50

308
ASUS43 KDTX 221610
RWRMI
MICHIGAN HOURLY REGIONAL WEATHER ROUNDUP
NATIONAL WEATHER SERVICE DETROIT/PONTIAC MI
1200 PM EDT TUE AUG 22 2017

NOTE: "FAIR" INDICATES FEW OR NO CLOUDS BELOW 12,000 FEET WITH NO
SIGNIFICANT WEATHER AND/OR OBSTRUCTION TO VISIBILITY.

MIZ047>049-052>055-059>063-066>070-074>076-081>083-221700-
SOUTHEAST LOWER MICHIGAN

CITY           SKY/WX    TMP DP  RH WIND       PRES   REMARKS
ADRIAN         CLOUDY    74  66  76 W12G18    29.85S
ALMA           CLOUDY    74  65  72 W14G21    29.77S
ANN ARBOR      PTSUNNY   76  68  76 SW16      29.81S
BAD AXE        CLOUDY    72  68  88 W13G23    29.72S
CARO           CLOUDY    73  68  86 SW10      29.74S
DETROIT CITY   CLOUDY    75  67  76 SW15      29.80S
DETROIT        CLOUDY    77  68  73 SW17      29.81S
FLINT          CLOUDY    72  69  90 SW10      29.78R
GROSSE ILE     PTSUNNY   74  68  80 SW9       29.81S
HILLSDALE      CLOUDY    72  64  78 SW16G22   29.85F
HOWELL         CLOUDY    73  68  86 W8        29.80S

CITY           SKY/WX    TMP DP  RH WIND       PRES   REMARKS
JACKSON        CLOUDY    73  67  81 SW10G20   29.82F
LAMBERTVILLE   CLOUDY    75  67  77 SW8       29.84F
LANSING        CLOUDY    75  66  73 W15G28    29.80S
LAPEER         CLOUDY    73  69  88 W15G22    29.77S
MASON          CLOUDY    75  68  77 SW9G20    29.80F
MONROE         CLOUDY    76  69  79 SW8G18    29.82F
MT. CLEMENS    CLOUDY    76  69  78 SW13G20   29.77S
PONTIAC        CLOUDY    73  69  87 SW12G21   29.79S
PORT HOPE        N/A     73  67  81 VRB6G22   29.68R
PORT HURON     CLOUDY    73  68  83 SW9       29.77S
TRI CITIES     PTSUNNY   74  68  81 W17       29.75R
MIDLAND        CLOUDY    75  66  73 W10G16    29.73S
TROY           CLOUDY    75  68  79 SW12G18   29.82R
SAGINAW HB     CLOUDY    73  68  83 SW12G20   29.73F
$$
MIZ043>046-050>051-056>058-064>065-071>073-077>080-221700-
SOUTHWEST LOWER MICHIGAN

CITY           SKY/WX    TMP DP  RH WIND       PRES   REMARKS
BATTLE CREEK   CLOUDY    75  69  81 SW17      29.83F
BENTON HARBOR  PTSUNNY   74  65  73 W14G25    29.86R
BIG RAPIDS     CLOUDY    69  62  78 W10G21    29.77R
COLDWATER      CLOUDY    73  69  87 W13G20    29.85S
FREMONT        CLOUDY    69  66  91 W10G17    29.80R
HOLLAND        CLOUDY    71  63  75 W14G21    29.84R
GRAND RAPIDS   CLOUDY    74  64  71 W16G24    29.80S
IONIA          CLOUDY    75  63  67 W12G20    29.79S
KALAMAZOO      CLOUDY    75  66  73 W10       29.83S
LUDINGTON      CLOUDY    67  59  75 N13G21    29.80R
MARSHALL       CLOUDY    74  69  82 W20       29.82F
MOUNT PLEASANT PTSUNNY   75  64  67 W12G21    29.75S
MUSKEGON       CLOUDY    72  64  76 W16G22    29.81R
SOUTH HAVEN    CLOUDY    74  65  74 W12G17    29.85R
$$
MIZ016>042-221700-
NORTHERN LOWER MICHIGAN

CITY           SKY/WX    TMP DP  RH WIND       PRES   REMARKS
ALPENA         PTSUNNY   77  65  66 W16G25    29.63S
BEAVER ISLAND  MOSUNNY   67  56  67 NW12G21   29.73S
BELLAIRE       CLOUDY    63  58  86 NW6       29.76R
CADILLAC       CLOUDY    65  59  80 NW16G23   29.78R
CHARLEVOIX     CLOUDY    64  58  82 W15G23    29.77R
FRANKFORT      MOSUNNY   70  59  68 NW15G22   29.79R
GAYLORD        CLOUDY    60  57  89 W15G23    29.74R
GRAYLING       CLOUDY    62  58  87 NW16G23   29.75R
HARBOR SPRINGS CLOUDY    63  60  91 W8        29.72R
HOUGHTON LAKE  CLOUDY    68  61  78 NW23G39   29.74R
MANISTEE       CLOUDY    68  59  73 NW16G23   29.79R
OSCODA         CLOUDY    76  65  68 W18       29.66R
PELLSTON       CLOUDY    64  59  83 NW14G28   29.71R
ROGERS CITY    CLOUDY    66  63  91 W14G25    29.66R
TRAVERSE CITY  CLOUDY    66  58  75 NW14      29.77R
$$
MIZ007>008-015-221700-
EASTERN UPPER MICHIGAN

CITY           SKY/WX    TMP DP  RH WIND       PRES   REMARKS
KINROSS        CLOUDY    65  56  72 NW21G31   29.65R
MACKINAC ISLAN CLOUDY    64  61  90 NW13      29.68R
NEWBERRY       PTSUNNY   63  56  77 NW16G24   29.72R
S. S. MARIE    PTSUNNY   66  56  70 NW16G25   29.64S
MUNISING         N/A     63  58  83 NW20G26   29.76R
$$
MIZ004>006-011>014-085-221700-
CENTRAL UPPER MICHIGAN

CITY           SKY/WX    TMP DP  RH WIND       PRES   REMARKS
MANISTIQUE     CLOUDY    64  51  62 NW14G29   29.75R
ESCANABA       PTSUNNY   67  55  65 NW12      29.78R
MENOMINEE      MOSUNNY   68  53  58 N15       29.82R
SAWYER-GWINN   PTSUNNY   63  52  67 NW15G23   29.79R
$$
MIZ001>003-009>011-084-221700-
WESTERN UPPER MICHIGAN

CITY           SKY/WX    TMP DP  RH WIND       PRES   REMARKS
IRON MOUNTAIN  PTSUNNY   65  51  60 NW14      29.81S
HOUGHTON       LGT RAIN  64  54  69 NW16G30   29.79R
COPPER HARBOR    N/A     62  54  74 N17G28    29.76R
IRONWOOD       PTSUNNY   62  53  72 W15G21    29.90R
$$

ABBREVIATIONS USED IN REMARKS
   TC - TEMPERATURE IN CELSIUS
  WCI - WIND CHILL INDEX
   HX - HEAT INDEX
  VSB - VISIBILITY





USA.gov is the U.S. government's official web portal to all federal, state and local government web resources and services.